Apalachicola, FL

3:54 PM EDT on April 29, 2017 (GMT -0400)
Apalachicola Municipal

Weather History for KAAF - September, 2012

Change the Weather History Date:

Thursday, September 13, 2012

  Actual Average Record
Temperature  
Mean Temperature 79 °F 80 °F  
Max Temperature 87 °F 88 °F 93 °F (1991)
Min Temperature 71 °F 71 °F 59 °F (2015)
Degree Days  
Heating Degree Days 0    
Month to date heating degree days 0  
Since 1 July heating degree days 0  
Cooling Degree Days 14    
Month to date cooling degree days 193  
Year to date cooling degree days 2295  
Growing Degree Days 29 (Base 50)    
Moisture  
Dew Point 68 °F    
Average Humidity 69    
Maximum Humidity 87    
Minimum Humidity 50    
Precipitation  
Precipitation 0.00 in 0.24 in 6.86 in (1932)
Month to date precipitation 2.24 3.16  
Year to date precipitation 51.78 43.10  
Sea Level Pressure  
Sea Level Pressure 30.12 in    
Wind  
Wind Speed 9 mph (ENE)    
Max Wind Speed 18 mph    
Max Gust Speed 24 mph    
Visibility 10 miles    
Events      
T = Trace of Precipitation, MM = Missing Value Source: NWS Daily Summary

Daily Weather History Graph

Daily Weather History Graph

Search for Another Location

Airport or City:

Trip Planner

Search our weather history database for the weather conditions in past years. The results will help you decide how hot, cold, wet, or windy it might be!

Date:

Astronomy

Sep. 13, 2012 Rise Set
Actual Time 7:23 AM EDT 7:47 PM EDT
Civil Twilight 7:00 AM EDT 8:11 PM EDT
Nautical Twilight 6:32 AM EDT 8:39 PM EDT
Astronomical Twilight 6:03 AM EDT 9:07 PM EDT
Moon 4:51 AM EDT (9/13) 6:03 PM EDT (9/13)
Length of Visible Light 13h 11m
Length of Day
12h 23m
Waning Crescent, 7% of the Moon is Illuminated
Sep 13
Waning Crescent
Sep 15
New
Sep 22
First Quarter
Sep 29
Full
Oct 8
Last Quarter

Hourly Weather History & Observations

Time (EDT) Temp. Heat Index Dew Point Humidity Pressure Visibility Wind Dir Wind Speed Gust Speed Precip Events Conditions
12:53 AM 75.0 °F - 71.1 °F 87% 30.13 in 10.0 mi ENE 8.1 mph - 0.01 in   Mostly Cloudy
1:53 AM 78.1 °F - 70.0 °F 76% 30.13 in 10.0 mi East 11.5 mph 21.9 mph N/A   Scattered Clouds
2:42 AM 77.0 °F - 69.8 °F 78% 30.13 in 10.0 mi ENE 9.2 mph - N/A   Mostly Cloudy
2:53 AM 75.9 °F - 70.0 °F 82% 30.13 in 10.0 mi NE 6.9 mph - N/A   Mostly Cloudy
3:28 AM 73.4 °F - 69.8 °F 88% 30.13 in 10.0 mi NE 6.9 mph - N/A   Mostly Cloudy
3:53 AM 73.9 °F - 69.1 °F 85% 30.13 in 10.0 mi NE 6.9 mph - N/A   Mostly Cloudy
4:22 AM 73.4 °F - 69.8 °F 88% 30.12 in 10.0 mi NE 8.1 mph - N/A   Overcast
4:53 AM 73.0 °F - 69.1 °F 87% 30.12 in 10.0 mi ENE 6.9 mph - N/A   Overcast
5:53 AM 73.0 °F - 68.0 °F 84% 30.13 in 10.0 mi NE 9.2 mph - N/A   Mostly Cloudy
6:53 AM 72.0 °F - 66.9 °F 84% 30.14 in 10.0 mi NE 9.2 mph - N/A   Clear
7:53 AM 71.1 °F - 66.9 °F 87% 30.15 in 10.0 mi NE 9.2 mph - N/A   Overcast
8:53 AM 73.9 °F - 66.9 °F 79% 30.16 in 10.0 mi ENE 10.4 mph - N/A   Overcast
9:53 AM 80.1 °F 82.7 °F 68.0 °F 67% 30.15 in 10.0 mi ENE 13.8 mph 18.4 mph N/A   Mostly Cloudy
10:53 AM 81.0 °F 83.8 °F 68.0 °F 65% 30.16 in 10.0 mi East 11.5 mph 19.6 mph N/A   Clear
11:53 AM 84.0 °F 86.5 °F 66.9 °F 56% 30.17 in 10.0 mi East 13.8 mph 20.7 mph N/A   Clear
12:53 PM 84.9 °F 87.1 °F 66.0 °F 53% 30.15 in 10.0 mi East 13.8 mph 20.7 mph N/A   Clear
1:53 PM 86.0 °F 88.8 °F 66.9 °F 53% 30.13 in 10.0 mi ESE 9.2 mph - N/A   Clear
2:53 PM 87.1 °F 89.2 °F 66.0 °F 49% 30.11 in 10.0 mi ESE 10.4 mph - N/A   Clear
3:53 PM 84.9 °F 87.1 °F 66.0 °F 53% 30.09 in 10.0 mi ESE 10.4 mph - N/A   Mostly Cloudy
4:53 PM 84.9 °F 87.1 °F 66.0 °F 53% 30.07 in 10.0 mi East 9.2 mph - N/A   Mostly Cloudy
5:53 PM 84.9 °F 88.2 °F 68.0 °F 57% 30.06 in 10.0 mi ESE 10.4 mph - N/A   Scattered Clouds
6:53 PM 82.9 °F 85.8 °F 68.0 °F 60% 30.07 in 10.0 mi ESE 5.8 mph - N/A   Partly Cloudy
7:53 PM 80.6 °F 83.9 °F 69.8 °F 70% 30.07 in 10.0 mi NE 4.6 mph - N/A   Mostly Cloudy
8:53 PM 79.0 °F - 68.0 °F 69% 30.09 in 10.0 mi ENE 6.9 mph - N/A   Partly Cloudy
9:53 PM 78.1 °F - 68.0 °F 71% 30.11 in 10.0 mi NE 6.9 mph - N/A   Clear
10:53 PM 75.9 °F - 66.9 °F 74% 30.12 in 10.0 mi NE 6.9 mph - N/A   Clear
11:53 PM 75.0 °F - 68.0 °F 79% 30.13 in 10.0 mi NE 6.9 mph - N/A   Clear